Date,TemperatureHighF,TemperatureAvgF,TemperatureLowF,DewpointHighF,DewpointAvgF,DewpointLowF,HumidityHigh,HumidityAvg,HumidityLow,PressureMaxIn,PressureMinIn,WindSpeedMaxMPH,WindSpeedAvgMPH,GustSpeedMaxMPH,PrecipitationSumIn
2013-1-1,19.2,5.5,-10.3,19.0,3.0,-12.5,99,89,72,30.22,29.98,3,0,8,0.00
2013-1-2,20.8,15.5,12.6,20.6,15.2,12.3,99,99,98,30.02,29.90,4,1,9,0.00
2013-1-3,20.8,13.3,9.0,20.6,11.7,5.7,99,93,80,30.19,30.01,8,2,16,0.00
2013-1-4,28.4,20.5,10.8,20.8,16.7,9.7,98,85,72,30.07,29.95,7,1,13,0.00
2013-1-5,23.0,17.2,7.9,17.5,14.5,7.2,98,89,77,30.04,29.80,8,2,14,0.00
2013-1-6,19.9,14.0,9.1,18.1,11.6,6.6,99,90,77,30.16,29.94,8,2,12,0.00
2013-1-7,34.2,27.9,18.9,28.9,25.2,17.7,99,90,80,29.98,29.83,5,1,13,0.00
2013-1-8,33.6,25.7,12.6,33.2,24.9,12.3,99,97,91,29.93,29.72,5,1,12,0.00
2013-1-9,34.3,29.5,19.2,31.0,25.5,19.0,99,86,72,30.31,29.86,13,3,26,0.00
2013-1-10,38.8,32.5,19.2,33.9,28.9,19.0,99,88,64,30.26,29.69,6,2,12,0.25
2013-1-11,39.9,36.3,34.0,39.7,36.1,33.7,99,99,99,29.70,29.34,4,1,8,0.02
2013-1-12,38.3,15.3,4.1,38.0,11.9,0.2,99,86,73,30.03,29.35,7,0,15,0.01
2013-1-13,9.3,4.2,0.9,5.4,1.1,-1.5,90,86,77,30.19,29.98,7,1,16,0.00
2013-1-14,12.0,7.0,3.2,6.9,4.3,1.9,96,89,77,30.34,30.18,8,1,16,0.00
2013-1-15,29.5,19.4,3.4,22.7,15.8,2.3,99,86,72,30.22,29.80,4,1,13,0.00
2013-1-16,37.2,26.3,12.4,36.4,22.9,6.1,99,87,57,30.16,29.61,11,3,18,0.01
2013-1-17,18.1,11.7,2.5,14.2,5.6,-2.0,90,76,59,30.34,30.16,8,1,14,0.00
2013-1-18,42.4,30.9,16.5,36.3,28.4,14.2,99,91,77,30.22,29.68,6,1,11,0.00
2013-1-19,39.7,23.9,1.8,35.1,20.2,-3.0,99,86,65,30.17,29.63,21,6,40,1.35
2013-1-20,62.2,2.5,-2.9,2.4,-3.7,-9.8,86,74,62,30.34,30.17,11,4,20,0.00
2013-1-21,-3.1,-7.3,-11.9,-9.4,-14.0,-18.3,80,71,62,30.28,30.20,11,4,21,0.00
2013-1-22,1.8,-4.8,-11.2,-4.7,-10.7,-15.4,81,75,67,30.33,30.22,7,1,11,0.00
2013-1-23,16.0,2.9,-4.5,11.3,-6.6,-14.8,93,64,54,30.53,30.10,11,4,24,0.00
2013-1-24,13.1,2.4,-6.5,6.2,-7.0,-15.8,73,64,53,30.60,30.11,8,2,14,0.00
2013-1-25,19.9,12.6,3.4,15.4,6.6,-1.4,89,76,63,30.24,29.89,17,4,31,0.02
2013-1-26,24.4,12.9,-1.5,15.7,6.2,-4.6,90,75,60,30.28,30.06,7,2,14,0.00
2013-1-27,32.5,30.0,23.7,31.8,25.8,15.4,99,85,67,30.06,29.74,8,1,14,0.09
2013-1-28,34.3,32.0,30.7,34.1,31.7,30.5,99,99,99,29.85,29.58,6,0,9,0.18
2013-1-29,35.4,32.3,28.2,35.0,31.8,26.7,99,98,92,29.69,29.47,10,2,19,0.04
2013-1-30,28.2,17.8,8.4,26.7,14.4,3.6,94,86,76,29.71,29.57,14,6,24,0.00
2013-1-31,8.2,0.3,-8.9,4.6,-4.5,-14.6,88,79,70,30.21,29.71,13,6,23,0.00
2013-2-1,59.0,-2.2,-12.8,7.7,-7.0,-16.8,99,80,65,30.25,29.98,49,2,49,0.00
2013-2-2,11.1,6.5,1.6,9.1,4.1,0.3,99,90,78,30.11,29.91,5,1,10,0.00
2013-2-3,14.0,11.4,5.0,11.3,8.0,2.1,99,86,73,30.03,29.89,7,1,12,0.00
2013-2-4,17.1,10.6,3.6,12.2,7.2,2.4,99,87,68,30.01,29.71,4,0,9,0.00
2013-2-5,29.7,22.0,5.7,28.7,20.0,4.2,99,92,77,30.02,29.61,10,2,15,0.00
2013-2-6,25.7,15.3,0.9,24.5,14.6,0.0,99,97,92,30.06,29.87,9,1,14,0.00
2013-2-7,26.6,25.1,20.1,25.6,24.4,19.9,99,97,91,30.19,29.91,8,2,15,0.00
2013-2-8,25.5,23.4,19.9,24.6,20.8,16.4,99,90,74,30.32,30.16,8,1,11,0.01
2013-2-9,32.4,28.3,25.0,31.9,28.0,24.5,99,99,97,30.17,29.88,10,3,20,0.00
2013-2-10,33.8,31.0,28.0,33.6,30.8,27.8,99,99,99,29.88,29.21,11,2,17,0.11
2013-2-11,30.9,24.6,17.1,30.7,23.0,15.2,99,93,86,29.99,29.28,14,2,22,0.00
2013-2-12,35.2,24.9,14.7,30.5,22.5,13.7,99,91,80,29.99,29.75,6,1,11,0.17
2013-2-13,41.2,29.2,17.6,34.5,27.4,17.4,99,94,76,29.76,29.51,4,0,8,0.05
2013-2-14,33.4,27.2,14.4,33.2,23.1,7.0,99,86,50,30.12,29.52,13,2,20,0.02
2013-2-15,16.7,10.0,3.6,7.5,4.1,0.8,91,77,61,30.24,30.11,9,3,17,0.01
2013-2-16,14.9,7.1,-0.2,10.0,3.9,-1.9,95,87,75,30.20,30.05,4,1,8,0.00
2013-2-17,32.0,20.5,2.5,26.8,17.3,0.8,96,87,76,30.06,29.57,9,2,18,0.00
2013-2-18,30.9,29.3,27.5,28.7,27.2,25.4,99,92,88,29.58,29.48,5,1,11,0.00
2013-2-19,5.5,2.2,-3.5,3.2,-3.6,-8.9,90,76,67,30.29,29.77,11,6,17,0.00
2013-2-20,14.7,3.9,-8.9,6.1,-2.0,-12.5,84,76,67,30.38,30.31,4,1,6,0.00
2013-2-21,20.1,12.9,2.8,15.0,7.7,-0.9,88,80,72,30.35,30.00,7,2,12,0.00
2013-2-22,27.1,22.7,18.5,26.9,22.4,16.0,99,99,85,29.99,29.80,5,2,9,0.09
2013-2-23,26.2,17.7,10.4,26.0,17.4,10.2,99,99,99,29.91,29.80,2,0,8,0.00
2013-2-24,31.5,17.8,1.9,26.2,15.9,1.7,99,93,78,30.04,29.90,4,0,7,0.00
2013-2-25,35.4,27.2,15.4,30.5,25.4,15.2,99,93,80,30.05,29.97,4,0,6,0.00
2013-2-26,36.3,29.4,13.8,30.7,26.5,13.4,99,89,78,29.99,29.80,8,2,16,0.00
2013-2-27,37.9,31.8,27.9,29.9,27.9,25.3,97,86,69,29.97,29.80,12,3,22,0.00
2013-2-28,31.5,28.2,23.9,25.7,23.4,19.0,90,82,77,30.16,29.96,64,2,64,0.00
2013-3-1,29.7,24.5,17.6,21.4,17.9,12.9,84,76,66,30.28,30.15,9,2,14,0.00
2013-3-2,25.9,18.2,8.1,17.9,10.7,6.7,96,74,47,30.29,30.11,5,0,10,0.00
2013-3-3,32.0,23.6,12.4,17.3,13.6,7.9,84,66,50,30.12,29.92,9,2,14,0.00
2013-3-4,26.4,24.2,21.6,23.7,21.1,17.1,99,89,68,29.98,29.88,12,4,18,0.00
2013-3-5,29.1,25.3,21.9,28.3,24.9,20.8,99,98,92,30.24,29.91,7,2,11,0.06
2013-3-6,27.5,21.8,9.1,21.9,18.9,8.5,99,89,75,30.35,30.23,8,2,14,0.02
2013-3-7,29.3,16.7,4.1,23.0,13.8,3.3,99,89,76,30.32,30.22,7,1,11,0.01
2013-3-8,37.0,27.2,15.6,33.1,25.4,14.9,99,93,85,30.26,30.03,7,2,12,0.00
2013-3-9,36.1,34.9,33.1,35.9,34.6,31.8,99,99,93,30.04,29.65,8,2,14,0.77
2013-3-10,35.2,33.2,28.6,34.5,32.8,28.3,99,98,94,29.88,29.71,13,4,23,0.02
2013-3-11,29.7,27.2,21.4,28.3,25.4,19.0,99,93,79,29.80,29.69,9,4,17,0.00
2013-3-12,26.8,23.8,19.2,24.7,19.1,13.0,99,83,61,30.13,29.78,12,4,24,0.01
2013-3-13,30.0,21.3,11.3,20.9,16.0,10.9,99,81,62,30.32,30.13,7,2,12,0.00
2013-3-14,38.1,29.3,22.8,31.7,26.8,20.9,99,91,77,30.20,29.96,7,1,11,0.02
2013-3-15,33.8,31.1,26.4,33.6,30.8,26.2,99,99,99,29.97,29.75,7,1,11,0.01
2013-3-16,26.4,22.0,13.5,26.2,17.6,8.8,99,84,65,30.18,29.83,10,4,15,0.00
2013-3-17,27.3,18.5,7.3,24.2,11.0,1.3,89,72,64,30.20,29.83,10,4,17,0.00
2013-3-18,29.8,21.4,11.3,29.6,19.4,7.6,99,92,78,29.83,29.56,15,6,28,0.02
2013-3-19,21.4,12.6,5.9,9.3,4.3,-1.1,85,70,50,30.14,29.78,13,7,24,0.00
2013-3-20,19.0,11.9,5.0,6.5,2.0,-2.0,74,64,55,30.16,30.06,14,5,24,0.00
2013-3-21,27.0,15.8,0.5,13.6,6.9,-3.4,86,68,54,30.08,29.97,5,1,9,0.00
2013-3-22,32.9,22.0,5.9,18.6,12.8,2.6,90,69,51,30.06,29.98,4,1,102,0.00
2013-3-23,38.1,28.7,15.8,24.0,19.6,12.9,90,70,52,30.11,30.02,4,1,8,0.00
2013-3-24,32.9,29.3,25.5,26.9,24.6,21.8,93,83,69,30.05,29.92,10,2,15,0.00
2013-3-25,37.6,30.7,23.2,23.2,20.9,18.1,83,68,52,30.17,29.97,9,4,16,0.00
2013-3-26,39.4,29.4,23.2,35.5,22.9,20.7,91,77,56,30.25,30.16,49,2,49,0.00
2013-3-27,41.5,31.2,16.9,30.7,21.8,16.7,99,71,48,30.29,30.24,4,0,8,0.00
2013-3-28,41.2,31.2,17.1,30.6,24.4,16.3,99,77,55,30.30,30.22,4,1,10,0.19
2013-3-29,46.2,36.3,25.2,39.3,32.8,24.3,99,88,69,30.24,30.03,6,1,11,0.00
2013-3-30,52.0,42.2,34.7,47.8,40.6,34.3,99,94,83,30.03,29.80,8,2,13,0.06
2013-3-31,39.0,33.3,23.9,35.2,26.9,16.5,99,80,47,30.04,29.76,15,5,27,0.01
2013-4-1,32.5,25.3,17.1,20.0,16.1,13.7,86,69,52,30.21,30.04,11,4,20,0.00
2013-4-2,35.4,27.8,18.5,21.3,17.4,14.2,97,67,44,30.31,30.20,11,2,17,0.00
2013-4-3,45.0,33.6,15.4,34.9,24.9,13.3,94,72,52,30.35,30.02,9,2,14,0.00
2013-4-4,50.4,42.7,34.0,38.5,31.9,25.0,89,67,47,30.12,29.96,9,3,17,0.00
2013-4-5,43.2,34.2,27.3,34.6,28.0,20.3,99,80,54,30.19,29.84,12,2,17,0.09
2013-4-6,57.7,42.9,35.1,50.1,39.8,33.0,99,89,73,29.85,29.45,10,4,20,0.08
2013-4-7,48.4,40.7,35.2,44.7,38.8,35.0,99,93,81,29.91,29.70,8,2,13,0.11
2013-4-8,48.6,43.0,39.2,48.1,42.7,38.9,99,99,97,29.98,29.64,6,2,12,0.11
2013-4-9,41.7,38.0,31.8,40.0,36.5,31.2,99,95,75,30.09,29.90,12,4,22,0.44
2013-4-10,36.3,33.1,28.8,34.6,30.7,26.4,99,92,73,30.14,29.84,10,2,18,0.14
2013-4-11,36.3,32.9,30.0,34.6,31.8,27.0,99,96,71,29.85,29.62,12,2,27,0.25
2013-4-12,34.7,30.9,27.3,33.9,30.6,27.1,99,99,93,29.80,29.62,7,1,12,0.05
2013-4-13,36.3,32.0,28.0,31.9,28.9,27.0,99,89,72,29.92,29.79,7,1,14,0.01
2013-4-14,35.8,32.2,29.1,35.5,31.3,26.8,99,96,82,29.91,29.42,14,2,25,0.32
2013-4-15,40.3,35.7,31.6,34.5,32.6,28.6,99,88,76,29.95,29.51,10,2,18,0.00
2013-4-16,44.4,37.2,32.4,33.0,31.1,29.6,96,79,61,30.27,29.93,8,2,15,0.00
2013-4-17,39.0,35.8,32.9,37.7,33.9,30.4,99,93,83,30.27,29.85,8,3,20,0.32
2013-4-18,35.4,32.5,30.6,35.2,32.2,30.3,99,99,99,29.87,29.46,11,2,20,0.13
2013-4-19,36.9,31.5,28.6,30.5,28.2,22.1,99,89,65,29.95,29.45,14,4,29,0.24
2013-4-20,40.6,32.1,19.4,25.0,20.7,16.8,95,65,43,30.25,29.95,4,1,8,0.00
2013-4-21,51.4,41.0,32.9,50.1,39.4,22.9,99,94,64,30.26,29.98,11,3,20,0.35
2013-4-22,41.2,36.2,31.6,40.4,35.5,31.4,99,97,84,30.16,30.05,8,2,13,0.13
2013-4-23,40.8,33.7,28.6,33.3,28.7,22.8,99,84,55,30.11,30.01,8,2,17,0.14
2013-4-24,48.7,37.0,24.3,37.6,31.9,23.3,99,83,58,30.04,29.86,8,1,14,0.00
2013-4-25,51.3,40.6,32.2,38.4,34.2,28.8,99,80,51,30.18,29.95,10,2,20,0.01
2013-4-26,71.1,57.0,42.3,53.6,45.1,35.2,95,67,42,30.10,29.94,7,2,14,0.02
2013-4-27,75.9,59.4,38.1,55.4,47.6,35.7,95,68,43,30.10,29.88,7,1,10,0.00
2013-4-28,80.4,64.1,50.7,60.3,54.2,48.7,99,74,44,29.88,29.62,11,2,18,0.11
2013-4-29,75.6,62.1,51.3,63.1,54.9,42.9,99,79,58,29.78,29.53,8,2,13,0.01
2013-4-30,72.5,64.1,57.9,66.6,52.3,33.7,99,70,35,29.94,29.41,11,3,20,0.00
2013-5-1,57.9,39.8,33.3,44.7,37.1,32.8,99,92,53,30.44,29.93,10,3,19,0.59
2013-5-2,46.0,38.1,32.7,36.1,32.4,29.1,99,82,54,30.49,30.35,11,2,19,0.26
2013-5-3,38.7,34.1,31.3,35.3,31.9,28.2,99,92,70,30.36,30.09,9,3,18,0.15
2013-5-4,50.9,40.7,32.9,48.3,39.9,32.7,99,97,86,30.13,30.05,7,2,13,0.06
2013-5-5,68.2,50.9,38.8,55.2,46.2,38.6,99,86,63,30.13,30.03,6,2,11,0.00
2013-5-6,75.2,60.8,44.4,57.3,52.0,44.2,99,76,50,30.08,29.97,4,1,8,0.00
2013-5-7,78.4,65.8,48.6,60.4,54.1,48.3,99,70,40,30.04,29.93,4,1,11,0.00
2013-5-8,79.2,63.9,51.8,61.8,56.5,51.1,99,81,47,29.99,29.89,5,1,104,0.28
2013-5-9,59.2,53.9,44.6,58.9,52.8,34.5,99,96,68,30.05,29.91,11,3,21,0.09
2013-5-10,68.0,52.3,38.5,45.9,34.5,30.2,78,55,30,30.06,29.85,7,1,11,0.00
2013-5-11,56.1,47.5,41.7,48.4,30.6,22.0,86,55,35,30.14,29.84,18,7,29,0.04
2013-5-12,59.0,46.1,34.5,28.8,24.9,20.1,72,47,26,30.19,30.05,11,3,18,0.00
2013-5-13,73.8,55.4,33.4,53.0,39.7,26.1,82,59,38,30.08,29.63,9,2,25,0.00
2013-5-14,97.5,77.2,51.4,68.8,53.7,36.5,91,50,23,29.67,29.42,17,4,31,0.00
2013-5-15,81.0,67.0,55.4,57.3,52.1,47.7,77,61,45,29.90,29.65,11,2,19,0.00
2013-5-16,82.0,72.0,61.0,57.1,50.1,39.6,65,49,36,29.89,29.81,9,2,17,0.00
2013-5-17,68.5,57.4,54.1,59.1,54.3,39.6,99,92,39,29.97,29.85,10,4,17,0.41
2013-5-18,80.8,65.6,55.2,75.9,63.7,54.9,99,94,77,30.00,29.76,8,2,14,1.33
2013-5-19,81.9,69.1,62.6,76.3,68.0,62.3,99,97,80,29.78,29.51,11,2,20,1.05
2013-5-20,73.6,66.5,58.6,70.3,64.9,58.4,99,95,78,29.59,29.47,5,2,16,0.45
2013-5-21,68.4,60.1,52.9,65.8,59.3,52.6,99,97,83,29.67,29.49,4,1,8,0.01
2013-5-22,53.4,50.4,47.3,52.6,50.1,47.0,99,99,94,29.94,29.65,10,2,17,0.27
2013-5-23,65.1,54.8,45.0,51.4,43.1,34.8,99,68,43,30.31,29.93,8,3,14,0.00
2013-5-24,69.6,55.0,34.5,56.1,46.0,33.4,99,74,52,30.35,30.14,8,1,15,0.14
2013-5-25,60.8,55.3,52.3,55.2,53.1,48.5,99,92,77,30.23,30.18,8,2,16,0.09
2013-5-26,57.0,53.7,50.5,55.9,50.5,45.2,99,89,75,30.19,30.00,12,4,21,0.00
2013-5-27,58.8,55.7,52.7,58.5,55.3,52.4,99,99,96,30.01,29.80,11,3,18,0.12
2013-5-28,60.1,55.7,52.3,59.8,55.5,52.1,99,99,99,29.82,29.69,7,2,12,0.12
2013-5-29,75.0,64.1,53.1,74.7,63.9,52.8,99,99,99,29.79,29.62,7,1,14,0.24
2013-5-30,77.7,69.7,63.7,73.5,68.2,63.4,99,96,82,29.67,29.50,8,1,15,0.46
2013-5-31,79.9,69.1,61.3,71.6,64.7,60.8,99,88,57,29.55,29.49,8,2,23,0.12
2013-6-1,72.7,60.2,52.0,68.3,58.8,49.1,99,95,83,29.91,29.53,12,2,22,0.22
2013-6-2,67.6,56.7,49.3,49.9,47.3,45.0,93,73,51,30.05,29.91,10,2,17,0.00
2013-6-3,70.0,60.3,43.7,56.1,50.4,43.4,99,73,52,30.04,29.90,8,1,14,0.00
2013-6-4,63.1,59.4,54.9,60.1,56.3,52.6,99,90,72,30.05,29.96,8,2,14,0.02
2013-6-5,63.0,56.9,54.1,62.7,56.6,53.9,99,99,99,30.03,29.89,7,1,10,0.28
2013-6-6,56.7,54.0,50.9,56.4,53.7,50.6,99,99,99,30.00,29.92,6,1,10,0.00
2013-6-7,68.0,59.3,53.2,60.4,56.7,53.0,99,92,75,30.02,29.89,5,0,8,0.00
2013-6-8,72.3,64.2,55.2,63.9,60.1,54.8,99,88,71,29.90,29.85,6,1,11,0.00
2013-6-9,68.7,61.1,56.7,68.2,60.8,56.4,99,99,99,29.88,29.73,11,3,20,0.57
2013-6-10,77.9,65.9,58.3,72.3,64.6,58.0,99,96,80,29.84,29.77,4,0,8,0.00
2013-6-11,81.0,67.9,54.7,77.4,67.2,54.4,99,98,87,29.88,29.77,4,0,8,0.01
2013-6-12,72.5,67.7,63.3,72.2,66.9,61.0,99,98,81,29.89,29.75,7,2,17,1.49
2013-6-13,77.9,69.4,59.2,65.0,61.0,56.0,99,76,59,30.07,29.88,8,2,14,0.00
2013-6-14,79.5,70.1,55.4,70.2,64.8,55.1,99,84,70,30.06,29.85,7,1,15,0.05
2013-6-15,77.7,70.1,62.8,77.4,69.4,62.5,99,98,84,29.91,29.82,8,1,17,0.25
2013-6-16,85.6,70.9,56.8,67.2,62.0,56.6,99,78,43,29.91,29.82,21,1,33,0.13
2013-6-17,81.5,72.4,61.7,67.3,63.3,60.5,99,75,53,29.98,29.85,8,1,14,0.01
2013-6-18,75.9,66.0,57.9,67.4,62.2,56.8,99,88,69,30.06,29.97,7,1,12,0.00
2013-6-19,85.8,81.0,72.7,70.3,66.9,65.0,80,64,55,29.96,29.91,4,0,8,0.09
2013-6-20,90.9,80.8,69.8,78.2,72.0,65.9,93,76,59,29.98,29.85,5,1,14,0.00
2013-6-21,81.0,73.1,64.9,77.7,71.2,64.7,99,94,75,30.03,29.75,21,1,36,0.54
2013-6-22,81.9,72.6,64.9,80.1,72.0,64.7,99,98,93,30.00,29.81,7,1,15,0.56
2013-6-23,85.3,75.4,68.4,79.0,73.4,68.1,99,94,76,29.88,29.68,6,1,15,0.25
2013-6-24,82.9,72.6,63.0,81.1,72.0,62.7,99,98,88,29.89,29.78,5,0,13,0.05
2013-6-25,85.6,77.7,65.3,84.0,76.8,65.0,99,97,91,29.81,29.69,8,2,12,0.00
2013-6-26,87.3,79.0,70.9,85.3,75.9,70.6,99,91,70,29.81,29.63,9,1,17,0.00
2013-6-27,85.6,78.1,67.8,75.2,69.0,62.7,99,77,50,29.82,29.77,11,2,23,0.00
2013-6-28,78.1,71.4,66.4,70.2,66.6,63.7,99,85,73,29.80,29.73,14,4,25,0.13
2013-6-29,76.5,68.7,61.5,69.1,63.6,59.5,99,86,59,29.95,29.72,7,2,16,0.20
2013-6-30,81.5,69.7,57.4,64.5,59.5,53.5,99,73,48,30.09,29.95,9,1,15,0.00
2013-7-1,83.7,73.7,59.5,68.8,63.7,59.1,99,74,52,30.16,30.08,6,1,12,0.00
2013-7-2,81.9,72.8,59.5,65.2,61.4,56.6,94,70,53,30.13,30.02,7,1,12,0.00
2013-7-3,87.1,72.1,56.5,71.0,62.2,56.2,99,76,47,30.05,29.93,6,0,13,0.00
2013-7-4,89.1,76.5,61.0,74.4,66.9,60.7,99,75,51,29.96,29.85,5,1,11,0.00
2013-7-5,88.3,78.3,68.5,75.6,70.0,64.6,94,77,63,29.90,29.80,5,1,13,0.01
2013-7-6,91.4,81.3,71.6,78.8,72.7,68.2,92,76,63,29.88,29.79,4,1,12,0.00
2013-7-7,92.1,82.7,74.3,81.2,76.8,72.3,99,83,64,29.86,29.78,4,1,11,0.00
2013-7-8,90.5,78.7,69.1,79.4,75.3,68.8,99,90,68,29.97,29.85,4,1,8,0.00
2013-7-9,85.3,77.7,69.4,80.4,75.6,69.1,99,94,83,29.93,29.73,11,2,17,0.60
2013-7-10,80.4,72.3,63.0,72.6,64.6,59.4,99,79,54,30.03,29.89,11,3,18,0.00
2013-7-11,86.0,74.4,58.8,73.1,66.2,58.5,99,78,54,30.09,29.96,5,0,10,0.00
2013-7-12,87.8,78.3,68.0,75.4,69.1,63.8,91,75,61,30.01,29.90,7,1,15,0.00
2013-7-13,77.5,72.0,63.3,77.2,69.4,53.1,99,92,73,30.55,29.91,7,2,19,18.44
2013-7-14,86.2,76.7,68.5,78.1,73.0,68.2,99,89,71,30.26,30.04,5,1,11,0.00
2013-7-15,88.5,77.5,64.9,79.6,73.5,64.5,99,89,70,30.63,30.19,4,0,10,0.00
2013-7-16,93.4,85.1,71.8,84.8,80.5,71.5,99,87,71,30.63,30.28,3,0,11,0.00
2013-7-17,94.3,83.8,72.5,83.9,79.3,72.2,99,88,70,30.38,30.23,5,0,10,0.00
2013-7-18,93.4,85.0,75.0,84.7,80.2,74.7,99,87,71,30.23,29.88,6,1,12,0.00
2013-7-19,83.5,79.1,72.3,79.6,72.8,67.4,99,82,63,30.06,29.82,9,2,21,0.27
2013-7-20,80.1,73.0,65.5,74.7,69.1,64.3,99,88,75,30.15,29.69,6,1,11,0.00
2013-7-21,80.1,70.1,59.0,78.0,68.3,58.7,99,94,86,30.08,29.87,7,2,13,0.06
2013-7-22,85.8,75.2,65.7,83.6,71.6,63.4,99,89,69,29.95,29.69,11,2,18,0.00
2013-7-23,76.3,68.7,60.4,64.3,61.1,59.0,99,78,61,30.29,29.91,8,2,17,0.00
2013-7-24,78.6,66.2,56.5,69.8,63.6,56.2,99,92,72,30.26,29.96,2,0,6,0.00
2013-7-25,82.0,72.1,60.4,77.2,69.8,60.2,99,93,74,29.99,29.89,5,0,11,0.02
2013-7-26,69.4,64.4,57.6,68.4,61.4,52.9,99,90,71,30.10,29.88,13,3,24,0.30
2013-7-27,62.2,56.8,52.3,58.3,53.8,50.2,99,90,71,30.09,29.96,14,3,24,0.04
2013-7-28,73.9,60.7,51.8,62.0,56.0,51.1,99,86,65,30.37,29.93,8,2,14,0.00
2013-7-29,77.4,66.0,50.5,67.6,60.8,50.3,99,85,63,30.24,30.12,4,0,8,0.00
2013-7-30,72.9,67.3,62.4,72.6,66.7,62.1,99,98,91,30.12,30.06,4,0,10,0.06
2013-7-31,78.3,69.1,61.5,74.1,66.1,60.1,99,91,69,30.10,29.99,7,1,17,0.06
2013-8-1,84.0,69.8,54.3,70.6,63.3,54.0,99,82,61,30.08,29.88,4,0,9,0.00
2013-8-2,76.8,69.4,60.4,67.2,62.5,58.2,99,81,56,30.09,29.84,8,1,11,0.00
2013-8-3,78.3,67.5,54.9,65.7,59.6,54.6,99,79,53,30.23,30.06,7,1,11,0.00
2013-8-4,74.1,64.7,52.2,65.7,60.8,51.7,99,88,71,30.21,30.00,4,0,7,0.00
2013-8-5,81.0,68.1,59.7,78.1,67.5,59.4,99,98,89,30.02,29.80,4,0,9,0.57
2013-8-6,85.1,70.3,58.1,78.5,68.1,57.8,99,94,74,29.87,29.75,16,1,27,0.06
2013-8-7,76.8,67.0,59.0,65.6,61.5,58.2,99,85,56,30.02,29.86,6,2,13,0.00
2013-8-8,74.7,65.2,53.6,68.5,62.7,53.1,99,92,73,30.03,29.88,4,0,8,0.01
2013-8-9,73.8,66.5,58.6,68.0,60.8,58.2,99,84,63,30.04,29.88,11,2,18,0.00
2013-8-10,76.3,67.5,60.3,65.7,61.8,57.0,99,84,62,30.16,29.98,5,0,9,0.00
2013-8-11,78.4,69.1,63.1,74.2,67.7,62.7,99,96,82,30.06,29.92,6,0,9,0.00
2013-8-12,78.1,69.7,62.8,69.1,64.2,60.3,99,85,59,30.04,29.93,8,1,14,0.00
2013-8-13,73.8,65.1,54.9,63.2,57.7,53.8,99,80,53,30.15,30.00,6,1,11,0.00
2013-8-14,77.0,69.7,52.5,62.3,59.0,52.1,99,71,57,30.15,29.98,7,0,11,0.00
2013-8-15,77.9,66.3,52.3,69.9,61.0,52.1,99,85,60,30.09,29.94,4,0,8,0.00
2013-8-16,80.4,69.2,56.5,69.5,63.4,56.2,99,84,60,30.21,30.07,4,0,7,0.00
2013-8-17,81.3,68.9,53.8,70.5,62.6,53.5,99,83,60,30.13,30.05,4,0,11,0.00
2013-8-18,82.4,70.8,57.2,71.6,65.4,56.9,99,85,63,30.09,29.89,5,0,11,0.00
2013-8-19,86.0,74.0,64.4,79.1,71.7,64.1,99,93,75,29.92,29.80,4,0,9,0.00
2013-8-20,88.7,79.0,68.9,83.4,76.9,68.6,99,94,82,29.84,29.77,5,1,14,0.00
2013-8-21,84.0,77.0,71.1,83.5,76.6,70.8,99,99,96,30.03,29.69,4,0,9,0.32
2013-8-22,84.2,75.5,65.3,74.4,67.6,59.6,99,79,57,30.08,29.92,8,1,14,0.00
2013-8-23,84.6,72.6,57.4,78.2,69.6,56.9,99,91,75,30.12,29.99,7,0,10,0.00
2013-8-24,88.2,78.7,69.4,84.1,76.9,69.1,99,95,83,30.09,29.89,6,2,17,0.00
2013-8-25,92.8,84.6,77.2,86.4,82.0,76.9,99,92,79,29.93,29.83,4,1,11,0.00
2013-8-26,93.4,85.3,77.9,88.0,83.0,77.6,99,93,80,29.94,29.78,4,1,11,0.00
2013-8-27,92.3,84.1,74.8,88.2,82.1,74.5,99,94,82,30.01,29.70,5,1,9,0.00
2013-8-28,88.7,80.1,69.6,84.7,78.4,69.3,99,95,75,30.10,29.93,8,1,14,0.00
2013-8-29,92.7,82.2,73.9,86.9,78.9,73.6,99,91,69,30.03,29.89,4,1,11,0.00
2013-8-30,83.8,77.4,71.6,78.3,74.7,70.5,99,92,77,29.99,29.84,8,2,16,0.00
2013-8-31,86.0,74.6,63.0,79.6,72.4,62.7,99,93,76,29.96,29.75,11,1,19,0.07
2013-9-1,73.0,69.4,63.9,71.1,67.2,61.0,99,93,80,30.03,29.72,10,3,17,0.00
2013-9-2,66.2,59.3,51.6,61.3,57.5,51.3,99,94,81,30.21,29.94,7,1,11,0.00
2013-9-3,75.6,61.4,45.9,66.4,58.3,45.6,99,91,69,30.15,29.95,4,0,7,0.00
2013-9-4,85.5,71.8,56.5,78.6,68.3,56.2,99,90,71,30.20,30.00,4,1,10,0.00
2013-9-5,81.9,71.5,61.3,76.5,68.9,60.9,99,92,77,30.23,30.12,7,2,14,0.00
2013-9-6,88.9,77.4,68.4,79.1,73.0,67.9,99,88,66,30.12,29.93,4,1,11,0.02
2013-9-7,91.4,79.2,70.0,82.0,75.5,69.7,99,90,62,30.46,29.86,8,1,17,0.00
2013-9-8,78.6,71.2,66.2,74.9,70.1,65.9,99,96,86,30.47,30.36,8,3,27,0.00
2013-9-9,91.8,78.8,69.1,83.9,76.1,68.8,99,92,73,30.37,30.09,5,1,13,0.05
2013-9-10,81.0,74.5,67.8,78.0,72.6,67.5,99,94,81,30.47,30.22,4,1,11,0.00
2013-9-11,82.8,72.9,62.2,72.9,65.6,58.2,99,80,53,30.53,30.42,9,2,19,0.00
2013-9-12,72.7,65.1,56.3,61.8,56.4,50.3,99,75,54,30.65,30.51,10,2,17,0.00
2013-9-13,67.1,54.9,44.2,56.5,50.6,44.0,99,87,59,30.75,30.50,3,0,6,0.00
2013-9-14,74.3,62.8,46.4,61.8,56.3,46.1,99,82,58,30.57,30.34,5,1,10,0.51
2013-9-15,68.2,58.8,51.1,63.5,58.1,50.6,99,97,89,30.74,30.34,8,2,16,0.39
2013-9-16,65.5,53.6,42.8,55.5,49.2,42.5,99,87,61,30.91,30.71,7,1,11,0.00
2013-9-17,68.0,55.4,43.2,62.9,54.1,42.9,99,96,82,30.78,30.45,6,1,18,0.00
2013-9-18,74.3,67.6,59.7,74.0,67.4,59.4,99,99,99,30.45,30.13,4,1,10,0.07
2013-9-19,78.8,70.9,64.8,78.3,70.6,64.5,99,99,92,30.32,30.06,14,1,23,0.18
2013-9-20,64.9,61.6,61.5,64.5,60.8,60.7,99,97,97,30.32,30.30,6,3,11,0.00
2013-9-21,61.5,61.5,61.5,60.7,60.7,60.7,97,97,97,30.32,30.32,3,3,11,0.00
2013-9-22,73.6,64.8,58.8,64.3,61.4,52.8,99,89,72,30.32,29.73,9,2,14,17.69
2013-9-23,73.0,61.6,51.3,63.0,57.5,51.0,99,88,65,29.95,29.80,6,1,16,0.00
2013-9-24,74.3,60.4,47.5,63.8,56.4,47.2,99,88,66,29.96,29.83,9,1,14,0.00
2013-9-25,73.0,59.9,46.0,63.7,56.0,45.8,99,88,65,29.99,29.78,7,1,12,0.00
2013-9-26,80.6,66.8,52.2,70.5,62.6,51.9,99,88,69,30.04,29.72,7,2,21,0.00
2013-9-27,83.8,72.6,64.0,73.0,68.5,63.8,99,88,68,29.87,29.72,9,2,18,0.00
2013-9-28,70.0,60.7,45.5,68.1,59.8,45.2,99,97,89,29.88,29.51,10,2,20,0.13
2013-9-29,75.0,59.5,44.4,59.4,51.9,44.2,99,79,52,29.95,29.73,5,1,14,0.01
2013-9-30,78.1,66.5,56.5,64.1,58.1,52.9,93,76,60,29.75,29.51,6,2,15,0.00
2013-10-1,74.3,65.3,47.3,60.4,52.7,43.5,96,68,37,29.93,29.51,10,2,18,0.00
2013-10-2,75.9,59.5,41.2,61.1,50.2,40.9,99,77,42,30.06,29.70,13,1,19,0.22
2013-10-3,60.6,58.3,56.3,60.3,58.0,56.0,99,99,99,29.85,29.73,8,2,14,0.13
2013-10-4,58.1,57.0,55.6,57.6,56.7,55.3,99,99,99,29.95,29.67,11,3,21,0.32
2013-10-5,61.3,54.8,41.4,60.3,54.3,41.1,99,98,87,29.78,29.61,12,1,22,0.05
2013-10-6,54.9,47.5,39.9,54.6,47.3,39.7,99,99,99,29.86,29.65,10,1,16,0.04
2013-10-7,64.8,52.0,43.5,55.1,48.1,43.3,99,88,59,30.03,29.85,5,1,11,0.00
2013-10-8,75.6,59.5,42.3,60.2,51.5,42.0,99,78,54,30.02,29.85,7,1,17,0.00
2013-10-9,73.9,63.3,53.4,63.2,57.1,6.5,99,82,62,30.06,29.93,5,1,24,48.38
2013-10-10,76.6,60.6,42.3,64.5,54.9,42.0,99,84,58,30.04,29.86,98,1,98,0.00
2013-10-11,74.7,64.6,53.8,68.1,60.7,53.5,99,88,67,29.88,29.55,12,3,22,0.12
2013-10-12,58.5,51.3,42.8,58.2,47.5,42.1,99,88,60,30.18,29.66,11,1,21,0.01
2013-10-13,57.9,46.7,35.4,47.4,41.3,35.2,99,84,55,30.43,30.18,5,0,11,0.00
2013-10-14,54.5,46.5,35.4,51.7,43.7,35.2,99,91,69,30.42,29.82,11,2,17,0.33
2013-10-15,53.6,49.9,46.8,53.3,49.6,46.5,99,99,99,29.88,29.65,9,2,18,0.50
2013-10-16,52.5,44.8,34.0,47.4,43.5,33.7,99,95,76,29.93,29.75,8,2,14,0.01
2013-10-17,59.2,45.7,33.8,50.3,43.1,33.6,99,92,64,29.83,29.70,8,1,15,0.04
2013-10-18,50.9,43.3,36.5,44.2,38.7,34.8,99,86,57,29.92,29.78,8,2,15,0.04
2013-10-19,45.9,39.0,33.4,44.1,38.3,33.2,99,97,86,29.79,29.60,10,1,16,0.00
2013-10-20,49.3,37.7,28.4,46.3,37.1,28.2,99,98,84,29.88,29.62,9,2,17,0.04
2013-10-21,38.7,34.2,27.5,38.4,28.0,24.3,99,78,64,30.02,29.88,10,2,17,0.00
2013-10-22,39.2,33.3,23.5,36.4,31.4,23.3,99,93,80,30.09,30.00,5,1,9,0.00
2013-10-23,37.4,34.3,32.0,35.2,29.7,24.1,99,84,67,30.08,29.98,9,2,16,0.00
2013-10-24,43.0,36.5,32.4,34.4,30.4,24.5,99,79,66,30.25,30.05,8,2,14,0.00
2013-10-25,56.8,42.4,24.8,45.8,37.2,24.6,99,84,66,30.25,29.73,7,1,16,0.00
2013-10-26,51.8,42.9,34.0,45.9,35.2,30.1,87,75,62,30.11,29.74,13,4,22,0.00
2013-10-27,57.4,42.3,28.4,40.4,34.8,28.2,99,78,53,30.12,29.79,8,0,17,0.00
2013-10-28,42.3,36.9,32.0,34.8,29.2,24.3,96,75,56,30.44,30.11,9,2,17,0.00
2013-10-29,42.4,37.5,30.7,39.7,33.0,24.2,99,84,73,30.43,30.08,7,1,14,0.02
2013-10-30,50.0,45.0,39.2,49.7,44.8,38.9,99,99,99,30.08,29.66,49,1,49,0.08
2013-10-31,50.4,42.7,39.9,50.1,42.5,39.7,99,99,99,29.67,29.45,6,2,13,0.01
2013-11-1,50.5,43.3,36.5,45.0,41.0,36.1,99,92,77,29.89,29.60,8,2,14,0.00
2013-11-2,48.0,39.0,29.7,40.7,35.7,29.4,99,89,65,30.08,29.80,9,2,17,0.00
2013-11-3,54.0,42.7,30.4,42.7,36.8,30.1,99,82,58,30.10,29.90,15,3,26,0.00
2013-11-4,48.2,43.3,30.7,47.1,41.2,30.5,99,93,74,30.22,29.85,11,2,25,0.14
2013-11-5,43.9,34.4,25.3,41.0,32.8,25.1,99,94,74,30.30,30.00,7,1,12,0.04
2013-11-6,36.5,33.2,29.3,33.4,31.3,29.1,99,93,76,30.21,30.01,7,1,14,0.13
2013-11-7,33.8,29.7,24.6,33.6,29.5,24.4,99,99,99,30.25,30.16,7,1,14,0.00
2013-11-8,46.0,34.8,19.9,45.8,31.6,19.7,99,89,66,30.20,29.54,11,2,19,0.00
2013-11-9,45.9,41.2,34.9,45.6,37.6,29.3,99,87,70,30.22,29.58,15,6,29,0.01
2013-11-10,41.5,37.8,32.4,35.8,33.4,29.4,92,84,76,30.33,30.03,11,1,20,0.00
2013-11-11,38.1,24.7,15.4,36.2,17.7,10.1,99,75,57,30.73,30.08,11,4,20,0.00
2013-11-12,26.4,18.1,10.0,16.6,12.4,8.7,96,79,57,30.80,30.44,8,1,11,0.00
2013-11-13,48.9,36.0,21.2,39.6,28.4,16.1,84,74,63,30.44,29.88,4,0,13,0.00
2013-11-14,49.1,39.6,32.7,43.1,37.3,31.0,99,92,79,29.89,29.75,3,0,5,0.00
2013-11-15,54.5,41.3,26.2,46.6,38.4,26.0,99,90,70,29.85,29.65,5,0,11,0.00
2013-11-16,50.4,44.1,38.5,50.1,43.8,38.2,99,99,90,29.66,29.21,6,1,11,0.12
2013-11-17,52.2,39.1,31.8,43.3,38.5,29.8,99,98,92,29.90,29.30,17,5,29,0.11
2013-11-18,34.5,29.0,19.0,30.2,25.5,18.8,99,87,72,30.26,29.90,18,5,28,0.00
2013-11-19,45.7,33.5,17.6,37.1,29.3,17.4,99,86,68,30.27,29.92,10,3,21,0.00
2013-11-20,43.7,40.6,36.7,38.3,35.2,31.7,99,82,66,30.01,29.88,8,2,17,0.00
2013-11-21,37.4,30.7,23.5,37.1,30.3,20.3,99,98,84,30.48,30.01,11,4,18,0.01
2013-11-22,30.0,22.3,12.9,20.2,15.8,6.4,99,77,52,30.53,30.40,14,3,26,0.00
2013-11-23,16.3,10.6,5.5,7.5,4.3,1.8,93,76,53,30.72,30.49,13,3,18,0.00
2013-11-24,28.8,17.7,3.0,19.8,11.4,0.8,93,77,63,30.63,30.02,7,2,20,0.00
2013-11-25,39.2,33.1,26.4,33.0,27.2,19.8,93,79,68,30.11,29.94,13,3,22,0.00
2013-11-26,30.6,20.5,13.3,25.0,10.3,3.9,81,65,53,30.36,30.10,17,7,29,0.00
2013-11-27,23.9,17.0,6.8,13.9,10.2,3.6,94,75,60,30.35,29.94,5,0,9,0.00
2013-11-28,27.1,21.1,10.2,17.6,14.8,8.3,92,76,66,30.58,29.93,9,2,16,0.00
2013-11-29,33.4,22.4,7.3,25.3,17.8,5.8,97,84,64,30.54,29.93,8,1,15,0.00
2013-11-30,37.0,31.0,21.0,31.4,27.9,20.8,99,88,79,30.09,29.82,4,0,9,0.00
2013-12-1,34.5,27.2,18.1,30.8,25.7,17.9,99,94,85,30.15,29.93,2,0,4,0.00
2013-12-2,37.8,32.5,24.3,36.9,32.1,24.0,99,99,96,29.93,29.46,8,2,13,0.11
2013-12-3,35.4,33.8,31.8,35.2,33.6,31.6,99,99,99,29.72,29.43,5,2,10,0.09
2013-12-4,32.2,27.9,11.7,31.9,27.7,11.4,99,99,99,29.74,29.40,0,0,97,0.00
2013-12-5,11.7,4.7,-1.3,11.3,3.3,-2.8,99,94,86,30.35,29.73,0,0,0,0.00
2013-12-6,0.0,-3.8,-8.1,-2.7,-5.9,-10.2,94,90,84,30.62,30.21,0,0,0,0.00
2013-12-7,-0.9,-6.0,-11.9,-4.0,-8.6,-13.5,94,88,77,30.68,30.45,0,0,0,0.00
2013-12-8,11.8,6.6,-2.4,11.6,6.3,-4.0,99,98,93,30.58,29.98,0,0,0,0.00
2013-12-9,10.9,-0.6,-6.9,10.7,-2.3,-9.0,99,92,81,30.32,29.82,0,0,0,0.00
2013-12-10,15.3,7.7,2.5,15.0,5.7,-0.9,99,91,81,30.22,29.64,0,0,0,0.00
2013-12-11,7.3,-3.9,-9.0,4.7,-7.7,-11.8,89,82,73,30.58,30.21,0,0,0,0.00
2013-12-12,18.5,12.4,0.1,15.3,10.3,-2.2,98,91,82,30.31,30.04,4,0,9,0.00
2013-12-13,15.4,13.4,10.9,14.3,12.2,10.1,99,95,89,30.22,29.95,10,3,14,0.00
2013-12-14,14.7,9.2,-0.6,12.9,8.1,-2.9,99,95,88,30.24,30.03,11,2,21,0.00
2013-12-15,4.5,1.0,-1.7,-1.9,-3.4,-5.4,90,81,71,30.22,29.92,8,2,14,0.00
2013-12-16,24.4,10.4,-0.4,24.2,8.7,-5.7,99,93,77,30.20,29.88,5,1,14,0.00
2013-12-17,31.6,23.0,5.4,31.2,20.5,4.5,99,90,74,30.16,29.79,16,5,26,0.02
2013-12-18,37.2,23.6,3.6,33.0,21.9,3.1,99,94,84,30.13,29.56,5,1,13,0.05
2013-12-19,28.6,19.2,16.2,28.2,17.8,14.2,99,94,86,30.09,29.77,7,2,14,0.00
2013-12-20,19.0,17.5,16.3,18.1,17.1,16.1,99,98,95,30.02,29.87,5,1,11,0.00
2013-12-21,22.8,19.0,15.6,21.2,18.4,15.4,99,97,91,30.05,29.90,6,1,11,0.00
2013-12-22,18.7,13.3,1.6,18.5,12.8,0.3,99,98,94,30.29,29.86,11,4,15,0.00
2013-12-23,1.6,-3.4,-8.7,0.6,-6.2,-11.3,96,87,78,30.59,30.29,9,3,17,0.00
2013-12-24,10.4,-1.2,-14.8,8.4,-4.3,-17.6,99,86,63,30.51,30.25,8,1,13,0.00
2013-12-25,28.2,17.0,8.8,28.0,15.8,8.4,99,95,76,30.32,30.14,11,2,22,0.00
2013-12-26,24.3,17.9,6.6,24.0,17.6,6.4,99,99,96,30.26,30.12,3,0,4,0.00
2013-12-27,39.2,27.8,8.4,36.2,26.9,8.2,99,96,86,30.22,29.95,5,1,11,0.05
2013-12-28,44.8,30.9,18.9,38.3,29.3,18.6,99,94,76,29.99,29.64,16,2,26,0.00
2013-12-29,21.4,-0.4,-13.4,21.1,-5.9,-18.9,99,77,59,30.42,29.95,13,5,23,0.00
2013-12-30,0.3,-6.4,-15.3,-1.4,-9.0,-19.7,95,88,75,30.41,30.01,4,0,8,0.00
2013-12-31,0.5,-5.8,-10.1,-3.8,-8.6,-13.7,97,87,79,30.34,30.04,4,0,8,0.00
2014-1-1,2.3,-3.2,-9.0,-3.6,-8.1,-13.6,84,78,73,30.53,30.16,6,1,9,0.00
2014-1-2,2.7,-5.1,-14.1,-5.7,-12.4,-18.9,79,69,57,30.42,30.24,4,0,8,0.00